Weather in Lincoln

United States     40°47′21″N   96°41′36″W
temp.,
°C
wind,
m/s
gust,
m/s
humid.,
%
clouds,
%
prec.,
mm/h
press.,
hPa
HPBL,
m
18 may, tue
tue1801:00+16e4997100 0.4 1014532
04:00+15ene2599100 0.3 1014315
07:00+15ene3599100 0.4 1014282
10:00+17e459697 0.2 1013393
13:00+19ese348097 0.5 1013799
16:00+22e3368100 0.4 10111047
19:00+20e3480100 0.5 1011105
22:00+18e3790100 0.0 1012159
19 may, wed
wed1901:00+16ese3996100 0.1 1012247
04:00+16ese2898100 3.7 1010278
07:00+17se3599100 5.5 1012233
10:00+20sse4586100 0.1 1012591
13:00+22se6676100 1.5 1011875
16:00+21se5676100 1.9 1010939
19:00+21sse4783100 2.1 1010539
22:00+17sse499698 0.4 1012267
20 may, thu
thu2001:00+17s51295100 1.3 1012390
04:00+17s51395100 1.7 1012372
07:00+17s31096100 2.0 1013316
10:00+19s5991100 0.3 1015433
13:00+20s61184100 0.4 1015774
16:00+18sse61191100 0.5 1015579
19:00+19sse61089100 0.6 1014800
22:00+17se4119724 0.0 1015376
21 may, fri
fri2101:00+17sse4996100 0.1 1015486
04:00+18s51093100 0.1 1016609
07:00+18s51191100 0.1 1018593
10:00+20s61387100 0.0 1019769
13:00+26s8106417 0.0 10181209
16:00+27s810626 0.0 10181257
19:00+24s811785 0.0 1018874
22:00+23s8127287 0.0 1019896
22 may, sat
sat2201:00+21s6159233 0.0 1020576
04:00+20ssw6149299 0.0 1021651
07:00+21s5109099 0.0 1021686
10:00+23ssw697777 0.0 1021877
13:00+24ssw7108087 0.3 1021899
16:00+25ssw597472 0.3 10191082
19:00+24s6108092 0.9 1019817
22:00+21s6139347 0.0 1018502